PHGST EHRD-EHRD

Flight info

Callsign PHGST
Flight time 0h 6m
Altitude 1000
Route TRAFFIC PATTERN
Aircraft SR22/L-SFG/S

Departure

Time 2026-04-28 19:10
Airport Rotterdam The Hague Airport (EHRD)

Arrival

Time 2026-04-28 19:16
Airport Rotterdam The Hague Airport (EHRD)
Time Latitude Longitude Altitude Speed Heading
2026-04-28 18:47 51.94949 4.42658 -11 ft 0 kts 148°
2026-04-28 18:53 51.94946 4.42667 -11 ft 0 kts 72°
2026-04-28 18:54 51.94955 4.42697 -12 ft 4 kts 63°
2026-04-28 18:54 51.94981 4.42727 -12 ft 6 kts 19°
2026-04-28 18:54 51.95014 4.42800 -12 ft 10 kts 58°
2026-04-28 18:54 51.95058 4.42911 -12 ft 11 kts 57°
2026-04-28 18:55 51.95089 4.42989 -12 ft 9 kts 56°
2026-04-28 18:55 51.95110 4.43035 -12 ft 5 kts 51°
2026-04-28 18:55 51.95152 4.43123 -10 ft 5 kts 350°
2026-04-28 18:55 51.95177 4.43100 -10 ft 2 kts 353°
2026-04-28 18:56 51.95193 4.43099 -10 ft 0 kts
2026-04-28 19:04 51.95194 4.43099 -10 ft 0 kts
2026-04-28 19:04 51.95195 4.43100 -10 ft 3 kts 11°
2026-04-28 19:04 51.95268 4.43107 -10 ft 12 kts
2026-04-28 19:04 51.95343 4.43159 -9 ft 5 kts 56°
2026-04-28 19:05 51.95345 4.43165 -9 ft 0 kts 58°
2026-04-28 19:05 51.95453 4.43437 -6 ft 63 kts 52°
2026-04-28 19:06 51.95750 4.44198 128 ft 90 kts 57°
2026-04-28 19:06 51.95968 4.44752 305 ft 87 kts 58°
2026-04-28 19:06 51.96473 4.45789 464 ft 99 kts 35°
2026-04-28 19:06 51.97097 4.45570 446 ft 112 kts 303°
2026-04-28 19:07 51.96979 4.44296 461 ft 115 kts 237°
2026-04-28 19:07 51.96507 4.43280 462 ft 114 kts 220°
2026-04-28 19:07 51.96003 4.42290 370 ft 113 kts 231°
2026-04-28 19:07 51.95522 4.41287 321 ft 111 kts 234°
2026-04-28 19:08 51.94988 4.40981 458 ft 69 kts 119°
2026-04-28 19:08 51.94870 4.41798 327 ft 75 kts 80°
2026-04-28 19:08 51.95074 4.42478 165 ft 65 kts 64°
2026-04-28 19:08 51.95312 4.43086 39 ft 63 kts 53°
2026-04-28 19:09 51.95546 4.43669 -11 ft 52 kts 57°
2026-04-28 19:09 51.95774 4.44259 124 ft 75 kts 54°
2026-04-28 19:09 51.96105 4.45064 264 ft 97 kts 63°
2026-04-28 19:09 51.96513 4.45327 496 ft 112 kts 282°
2026-04-28 19:10 51.96011 4.45066 583 ft 99 kts 114°
2026-04-28 19:10 51.96460 4.45814 682 ft 122 kts 358°
2026-04-28 19:10 51.97146 4.44860 725 ft 141 kts 300°
2026-04-28 19:10 51.96665 4.43544 622 ft 149 kts 235°
2026-04-28 19:11 51.96111 4.42213 457 ft 138 kts 234°
2026-04-28 19:11 51.95616 4.41053 379 ft 119 kts 232°
2026-04-28 19:11 51.95178 4.39947 343 ft 109 kts 237°
2026-04-28 19:11 51.94751 4.38964 374 ft 108 kts 236°
2026-04-28 19:12 51.94316 4.37975 403 ft 114 kts 237°
2026-04-28 19:12 51.93923 4.36866 486 ft 112 kts 236°
2026-04-28 19:12 51.93533 4.35776 578 ft 110 kts 241°
2026-04-28 19:12 51.93166 4.34754 580 ft 102 kts 230°
2026-04-28 19:13 51.92675 4.34823 630 ft 87 kts 92°
2026-04-28 19:13 51.92819 4.35928 633 ft 116 kts 75°
2026-04-28 19:13 51.93008 4.37165 562 ft 101 kts 70°
2026-04-28 19:13 51.93278 4.37980 542 ft 64 kts 60°
2026-04-28 19:14 51.93500 4.38542 528 ft 58 kts 64°
2026-04-28 19:14 51.93726 4.39118 524 ft 65 kts 57°
2026-04-28 19:14 51.93992 4.39755 541 ft 69 kts 62°
2026-04-28 19:14 51.94252 4.40432 411 ft 73 kts 57°
2026-04-28 19:15 51.94523 4.41086 307 ft 66 kts 60°
2026-04-28 19:15 51.94753 4.41679 234 ft 58 kts 57°
2026-04-28 19:15 51.94980 4.42252 157 ft 62 kts 62°
2026-04-28 19:15 51.95139 4.42650 106 ft 65 kts 62°
2026-04-28 19:16 51.95446 4.43418 -8 ft 52 kts 61°
2026-04-28 19:16 51.95641 4.43898 -12 ft 50 kts 56°
2026-04-28 19:16 51.95838 4.44406 -15 ft 53 kts 60°
2026-04-28 19:16 51.95891 4.44696 -15 ft 13 kts 141°
2026-04-28 19:17 51.95820 4.44764 -15 ft 0 kts 161°
2026-04-28 19:17 51.95778 4.44745 -16 ft 14 kts 233°
2026-04-28 19:18 51.95690 4.44523 -16 ft 26 kts 237°
2026-04-28 19:18 51.95589 4.44268 -14 ft 26 kts 237°
2026-04-28 19:18 51.95484 4.44006 -12 ft 32 kts 235°
2026-04-28 19:18 51.95373 4.43728 -12 ft 26 kts 237°
2026-04-28 19:19 51.95284 4.43517 -12 ft 19 kts 238°
2026-04-28 19:19 51.95222 4.43357 -9 ft 13 kts 239°
2026-04-28 19:19 51.95184 4.43255 -9 ft 8 kts 233°
2026-04-28 19:19 51.95139 4.43131 -10 ft 12 kts 243°
2026-04-28 19:20 51.95100 4.43018 -12 ft 10 kts 233°
2026-04-28 19:20 51.95073 4.42946 -12 ft 6 kts 241°
2026-04-28 19:20 51.95043 4.42873 -12 ft 3 kts 240°
2026-04-28 19:20 51.94989 4.42741 -12 ft 12 kts 240°
2026-04-28 19:21 51.94960 4.42713 -12 ft 3 kts 239°
2026-04-28 19:21 51.94962 4.42689 -12 ft 0 kts 319°
2026-04-28 19:21 51.94959 4.42691 -12 ft 0 kts 98°
2026-04-28 19:21 51.94958 4.42693 -12 ft 0 kts 146°